Theta_e
285 286 286 287 283 283 284 285 285 281 278 278 277 278 281 282 277 277 282 284 282 283 285 283 280 279 278 278 276 277 278 277 277 276 276 276 275 275 274 274 273 273 272 273 272 272 272 271 270 270 270 270 270 269 269 269 268 268 268 267 267 266 266 265 266 266 267 267 268 269 268 268 268 268 268 267 267 267 267 267 267 267 268 268 268 268 269
283 284 284 284 283 283 284 284 284 285 281 278 279 280 282 281 281 282 283 283 283 285 286 288 285 281 280 279 278 277 276 276 276 276 276 276 275 275 274 274 273 273 273 272 271 271 271 270 270 269 269 269 269 268 268 268 267 267 267 266 265 265 265 265 265 266 266 267 267 267 267 267 267 267 266 266 266 266 266 266 267 267 267 268 268 268 268
281 283 283 283 282 282 281 283 284 284 284 284 282 281 281 281 280 282 282 281 281 286 288 287 286 282 281 278 276 276 277 276 276 276 275 276 276 275 274 273 273 273 272 271 271 270 270 269 269 269 268 268 268 267 267 267 266 266 266 265 264 264 264 265 265 265 266 266 267 266 266 266 265 265 265 265 264 265 265 266 266 266 267 267 267 268 268
280 283 280 280 280 280 281 281 282 282 283 281 283 281 282 281 279 281 280 278 279 284 286 282 283 278 278 277 276 276 276 276 276 276 276 275 275 274 273 273 273 272 271 271 270 269 269 269 268 268 268 267 267 266 266 266 265 265 265 264 264 263 264 264 264 265 266 265 265 264 264 264 263 264 264 264 264 264 264 265 265 266 266 266 267 267 268
278 281 277 277 277 277 277 279 281 282 282 284 285 285 285 284 283 280 278 279 284 286 280 278 277 278 277 277 277 277 277 277 277 276 276 275 275 274 274 273 273 271 271 270 270 269 268 268 268 268 267 267 266 266 265 265 265 264 263 263 263 263 263 264 264 265 265 264 263 263 263 263 263 263 262 262 262 263 264 265 265 265 266 266 267 267 267
280 275 276 277 276 272 276 283 284 284 281 282 281 281 283 284 284 282 284 285 287 285 282 281 278 276 277 278 278 279 278 277 276 276 276 275 275 274 274 273 272 271 270 270 270 269 268 268 268 268 267 266 266 265 264 264 263 263 262 262 262 262 262 263 264 264 263 262 261 261 262 262 262 262 262 261 262 263 264 265 265 265 266 266 267 267 267
277 274 276 273 271 275 283 277 281 284 284 284 283 283 284 284 285 284 283 284 284 285 285 283 280 278 279 279 278 277 278 279 277 276 275 274 274 273 272 272 271 270 269 269 268 268 268 268 267 266 266 265 264 263 263 262 262 262 261 261 261 262 262 262 262 262 261 261 260 261 261 261 261 261 261 262 262 263 264 264 265 265 266 266 267 267 268
274 271 273 270 273 283 285 281 280 282 281 282 281 280 283 283 283 283 282 284 285 285 285 283 278 277 276 276 276 277 277 278 277 275 274 274 273 273 272 272 271 269 268 268 267 267 268 267 266 265 264 264 262 262 262 261 261 261 261 260 261 261 261 261 261 261 260 260 260 260 260 260 260 261 261 262 262 263 264 265 266 266 267 267 267 267 268
276 278 275 276 283 281 283 284 280 279 280 278 279 278 283 286 284 283 283 283 284 284 284 276 275 275 276 274 275 277 277 277 277 276 275 274 273 273 272 271 270 269 268 267 267 267 266 265 264 264 263 262 261 261 260 260 260 260 260 260 260 260 260 260 259 259 259 259 259 259 259 260 260 261 261 262 263 265 265 265 266 266 266 267 267 267 268
283 278 276 275 275 272 279 282 280 281 283 283 282 279 278 284 282 284 283 282 283 282 275 275 275 276 275 272 274 277 276 276 275 275 275 274 273 272 271 269 268 268 267 267 267 266 264 264 264 263 262 261 260 260 259 260 259 259 259 259 259 259 259 259 258 258 259 258 258 259 259 260 260 262 263 264 265 266 265 265 266 267 267 267 268 268 268
279 276 274 274 274 277 285 278 279 278 280 281 278 274 273 281 282 283 283 282 282 280 275 275 276 275 272 274 276 277 275 275 275 274 273 273 271 270 269 268 267 266 266 266 265 264 263 262 263 262 261 260 259 258 259 259 259 258 258 258 258 258 258 258 258 258 258 258 259 259 260 261 262 262 263 264 265 265 265 266 266 267 268 268 268 269 269
279 277 275 273 278 278 280 276 277 278 280 282 279 272 276 280 280 281 282 281 281 277 277 275 276 276 273 276 278 277 275 275 275 273 271 270 269 268 267 267 267 266 265 264 263 263 262 262 262 261 260 259 258 258 258 258 257 257 258 258 258 258 258 257 257 257 258 258 259 260 261 262 263 263 264 264 264 264 265 266 266 267 268 269 268 269 269
278 279 276 278 278 284 279 277 277 279 281 280 271 271 282 280 279 279 280 281 279 277 276 276 275 278 279 278 277 276 275 274 273 273 272 270 269 267 267 267 268 265 264 264 263 262 262 262 261 260 259 258 257 257 257 257 257 257 258 258 257 257 257 256 256 257 258 259 259 260 262 262 263 263 263 263 263 263 264 265 266 266 268 269 270 270 270
276 277 275 276 279 284 279 279 279 281 281 272 275 284 281 280 279 278 280 280 279 278 278 278 279 276 274 276 276 275 274 274 272 271 269 268 267 268 268 267 265 264 263 262 262 262 262 261 260 259 257 256 257 257 256 256 257 258 258 257 256 256 255 255 256 257 257 259 260 261 262 262 261 262 262 262 262 263 263 264 265 267 269 270 271 271 272
275 275 273 272 270 281 281 279 278 282 279 281 284 278 279 279 280 278 278 279 279 279 278 279 276 274 274 274 275 274 274 272 270 269 268 267 266 265 265 264 265 263 262 261 261 261 261 260 259 259 256 255 256 256 255 256 257 257 257 256 255 255 254 255 255 256 258 259 260 261 261 262 261 261 261 261 261 262 263 264 265 266 267 268 269 270 273
272 274 271 273 280 281 281 280 277 280 285 286 280 281 278 278 278 278 278 278 279 280 279 276 275 274 274 274 273 273 272 272 270 269 268 267 266 265 264 263 262 261 261 261 260 260 259 258 257 258 256 254 255 255 255 257 257 256 255 255 254 253 254 254 255 256 258 259 260 261 261 261 261 260 260 260 261 261 262 263 264 264 265 267 268 269 271
277 277 280 283 278 281 282 285 286 284 286 280 281 282 281 278 278 278 279 279 279 280 279 277 275 273 274 273 273 272 272 271 269 268 267 266 265 264 263 262 262 260 260 258 259 257 258 257 257 256 256 254 254 254 255 256 255 255 254 253 253 253 253 254 255 256 258 259 260 260 260 260 260 260 260 260 260 261 262 262 263 263 265 267 267 268 270
286 287 287 281 278 280 281 284 282 281 283 280 281 281 280 280 280 280 279 280 279 280 279 276 275 275 274 273 273 272 271 270 269 268 266 265 264 263 262 261 261 259 258 256 256 255 256 257 257 256 255 255 253 254 256 255 255 254 253 252 252 252 253 254 255 257 258 259 259 260 260 260 260 260 259 259 259 260 261 262 262 263 265 266 267 267 269
282 279 288 285 284 281 281 282 283 280 282 281 281 281 281 281 280 280 281 280 280 280 279 278 277 276 275 273 273 272 271 269 267 266 265 264 263 262 260 261 259 257 255 255 254 254 253 256 256 256 255 255 255 255 254 255 254 253 252 251 252 252 253 254 255 257 258 258 259 259 259 259 260 260 259 259 260 260 261 261 262 263 265 266 266 267 268
283 285 284 280 286 286 283 282 282 281 280 281 281 281 282 281 281 281 281 281 280 280 278 279 278 276 275 274 273 271 270 268 267 266 264 263 262 261 261 259 257 255 255 255 254 254 254 256 256 255 255 254 254 254 254 254 252 251 251 251 251 251 253 255 256 257 258 259 258 257 258 258 258 258 259 260 260 260 261 261 262 264 265 265 266 267 267
284 287 286 280 280 281 281 282 283 284 282 281 280 281 280 280 280 280 280 281 280 280 280 279 278 276 275 274 273 271 270 268 267 266 264 263 261 260 259 257 256 256 254 254 253 254 254 255 255 254 253 253 253 254 254 253 252 250 250 251 251 252 253 254 255 257 257 257 257 257 257 258 259 259 258 259 260 262 263 264 265 265 265 266 267 268 268
281 282 285 285 279 282 285 281 282 283 283 282 281 280 279 280 279 279 279 279 280 281 280 279 278 276 275 274 273 271 270 268 267 265 263 261 260 259 258 257 255 255 254 253 253 253 254 255 254 253 252 253 253 254 253 252 251 250 250 250 251 251 253 254 255 256 256 256 256 257 257 257 257 258 261 265 264 262 262 267 270 271 271 267 268 269 268
283 287 289 288 287 289 290 287 284 283 283 282 280 280 279 280 280 280 279 278 277 278 278 279 278 277 275 273 272 270 269 267 266 264 262 260 259 258 257 255 253 253 254 253 252 252 253 254 252 252 251 252 252 253 253 252 251 250 250 250 251 251 252 253 256 256 256 255 256 256 257 257 257 256 257 258 264 267 267 268 269 270 270 271 272 273 270
290 292 291 289 287 286 288 283 283 283 283 282 281 281 281 281 280 280 280 279 278 277 277 276 277 277 274 272 272 269 267 265 264 263 261 260 259 258 256 255 254 253 253 253 253 253 253 253 251 251 251 251 251 251 251 250 251 249 249 249 250 251 252 254 255 256 255 255 256 256 256 256 256 256 256 255 256 262 266 266 268 269 269 270 271 272 272
290 293 286 287 288 288 286 282 283 283 283 282 281 281 281 281 280 281 280 279 280 278 276 275 273 274 273 271 271 268 265 264 263 262 260 259 259 257 255 254 253 253 253 254 253 253 252 251 251 250 250 250 251 251 250 250 250 249 249 249 250 251 252 254 255 255 255 254 255 255 255 255 255 255 255 255 254 254 257 264 266 267 267 268 269 271 271
293 284 282 284 285 284 282 282 282 282 282 283 282 282 282 281 281 280 280 280 279 278 277 275 272 271 271 270 268 266 264 262 262 261 259 258 257 255 254 253 253 254 253 253 252 251 250 250 250 249 249 249 250 250 249 249 248 248 248 249 249 250 252 254 254 254 254 254 254 255 255 255 255 255 255 255 254 254 254 254 256 260 264 266 267 269 270
291 283 283 280 280 279 282 282 280 281 281 283 282 282 281 281 280 280 280 279 278 277 277 274 272 269 268 268 265 264 263 262 261 259 259 257 256 255 254 254 253 253 252 252 251 252 251 250 249 248 248 248 249 248 249 248 247 248 248 249 250 252 254 255 254 254 254 254 254 254 255 255 254 254 254 255 255 254 254 253 253 254 254 255 261 267 266
289 284 287 285 282 281 280 283 283 283 282 282 282 281 280 279 277 275 274 273 271 270 270 269 267 266 265 264 263 262 262 261 259 258 258 257 256 254 253 253 252 252 252 251 250 250 250 249 248 248 248 249 250 247 247 247 247 247 248 248 249 251 252 253 254 253 252 252 253 253 255 254 254 254 255 254 254 254 254 254 254 253 254 254 256 262 267
286 284 286 289 287 283 283 283 282 281 281 282 282 279 277 275 275 275 274 274 271 269 267 266 266 266 265 263 263 262 261 260 258 257 257 256 254 253 252 252 252 251 251 251 249 249 248 248 248 248 248 249 246 246 246 245 245 247 247 248 248 249 251 252 253 252 252 252 252 254 257 255 254 254 254 254 254 254 254 253 254 254 253 254 255 256 261
284 284 284 283 282 282 281 280 280 280 280 279 277 276 276 276 274 274 274 271 269 269 267 266 265 264 264 263 262 262 260 259 259 257 256 254 253 252 252 252 251 251 251 250 249 249 248 246 244 244 245 248 246 246 245 244 246 245 245 247 247 249 251 254 253 252 251 251 252 255 254 254 254 254 254 253 253 253 253 253 254 253 252 253 255 254 255
280 281 281 281 280 281 281 280 280 280 278 277 277 275 275 276 275 274 272 270 269 268 265 265 265 263 263 263 262 261 260 258 257 256 254 253 252 252 251 252 251 250 249 250 250 247 244 244 244 243 245 247 245 245 244 244 245 245 245 247 247 252 255 257 256 253 251 251 252 252 253 253 253 253 253 253 253 252 253 252 252 252 252 252 252 253 255
279 279 278 278 279 280 280 280 279 277 276 276 275 275 275 275 274 274 271 268 268 266 264 264 263 262 262 261 259 258 257 256 255 254 253 252 252 252 252 252 251 251 249 248 246 245 245 243 245 245 244 244 244 244 244 244 244 245 245 248 247 247 251 256 252 253 252 251 251 251 252 252 252 253 253 252 252 252 252 252 252 252 252 252 252 252 255
278 276 275 276 277 279 279 279 277 275 275 275 276 276 276 277 277 275 271 269 267 265 264 264 263 262 260 259 258 257 256 255 255 253 253 252 251 251 250 247 247 247 246 246 246 245 244 244 244 244 243 243 243 244 244 244 243 244 244 245 244 247 251 253 253 251 250 251 250 251 251 252 252 252 252 252 252 252 252 252 251 252 251 252 252 252 255
280 281 280 279 279 279 279 277 278 276 275 276 277 276 275 275 275 273 271 269 267 265 265 264 262 260 259 258 257 256 255 254 253 252 252 251 250 248 247 248 245 244 243 243 242 242 241 242 242 242 243 244 247 248 246 245 244 243 243 243 245 246 247 248 250 248 248 249 249 251 250 251 251 252 252 252 252 252 251 251 251 251 251 251 252 252 256
284 284 283 281 282 283 283 280 278 276 275 274 274 275 275 275 274 272 269 268 266 266 265 262 260 259 258 257 256 255 256 256 255 254 252 251 249 248 247 245 244 245 244 244 244 242 242 242 241 242 242 245 248 247 248 245 244 244 244 244 247 246 246 247 247 248 248 248 248 248 249 250 251 252 252 252 251 251 251 251 251 251 250 250 251 252 252
283 282 282 282 282 283 281 279 279 277 276 275 275 274 274 273 272 269 267 267 267 264 262 260 259 259 258 257 256 256 256 256 255 253 252 250 249 248 247 246 247 247 247 245 248 243 242 241 249 251 249 248 249 247 248 247 244 243 245 244 245 246 247 247 246 246 247 246 247 248 248 251 251 251 252 251 251 251 251 250 250 250 250 250 250 251 251
283 282 282 282 282 281 280 279 277 276 276 276 275 273 272 271 270 269 267 265 264 263 261 260 259 258 258 258 258 257 257 255 254 253 251 249 248 248 248 247 247 248 248 247 248 246 242 242 250 251 249 248 248 247 248 252 246 244 243 242 243 245 245 245 245 245 245 245 247 246 249 249 249 250 251 250 250 250 250 250 250 250 250 250 250 250 250
283 283 282 282 281 281 279 279 278 276 276 275 275 274 273 271 268 266 265 264 263 262 261 260 260 260 259 257 257 256 254 253 252 251 249 248 248 248 247 248 248 248 249 249 246 245 242 245 251 247 246 246 247 247 248 251 251 243 241 243 244 244 245 245 245 246 246 245 247 246 246 247 248 248 249 249 250 250 250 250 250 250 249 249 249 250 250
282 282 282 281 281 280 279 278 277 276 276 275 273 271 270 269 267 265 264 263 262 261 261 260 259 258 257 256 255 253 252 251 251 249 249 248 249 249 249 250 250 250 247 244 246 244 245 251 247 243 243 243 247 247 248 251 251 242 242 242 242 244 245 245 244 245 245 246 245 246 245 247 247 248 248 248 249 249 249 250 250 249 249 249 249 249 249
281 281 280 280 279 279 278 276 276 276 276 275 272 269 267 266 265 264 262 261 260 261 260 259 258 256 256 255 254 252 251 250 250 249 249 248 249 248 246 246 246 244 246 250 247 246 250 251 249 248 248 247 246 243 249 250 250 246 242 242 243 244 244 245 244 244 243 243 245 247 245 246 246 247 248 248 248 249 248 249 249 249 248 248 248 249 249
281 280 279 279 278 278 277 275 275 274 273 272 271 269 267 266 265 263 261 260 260 260 259 259 258 257 256 255 254 252 250 250 250 249 249 249 249 249 250 250 250 248 249 249 249 247 251 249 248 248 246 246 246 249 248 249 248 247 246 244 244 244 244 244 244 244 244 244 245 243 244 245 245 245 246 247 247 248 248 248 248 248 248 248 248 248 248
280 280 279 278 277 276 275 274 272 271 270 269 267 267 267 265 265 263 261 260 260 259 258 258 258 257 256 255 253 250 249 249 249 249 250 251 251 251 251 250 248 250 250 250 250 250 249 248 249 249 247 247 247 249 250 248 244 246 245 245 244 245 244 244 244 243 243 243 242 242 243 243 243 244 246 246 246 247 247 247 247 247 247 247 247 248 248
279 279 278 277 276 274 272 271 271 268 265 265 266 266 265 265 263 261 260 259 259 258 258 257 256 255 254 253 251 250 249 249 249 249 249 248 248 251 251 252 250 250 251 250 249 247 247 247 248 247 249 249 248 249 249 247 245 244 245 245 247 247 246 245 244 243 243 241 242 242 242 243 243 243 244 244 245 246 246 247 247 247 247 247 247 247 248
278 278 277 275 273 271 270 269 266 265 264 263 264 264 263 262 261 260 259 258 258 258 257 255 255 254 253 252 252 251 249 249 249 250 250 249 249 251 250 250 249 250 251 249 248 247 247 247 248 249 249 249 249 249 247 246 246 245 245 245 245 246 246 244 243 243 242 243 243 242 243 244 243 243 243 244 244 245 246 246 246 246 246 246 246 247 247
277 277 275 272 270 268 267 266 266 265 262 261 260 260 260 260 259 259 259 258 257 257 256 255 254 253 253 253 253 252 251 251 251 251 251 250 250 251 249 250 250 250 250 249 248 248 247 248 249 249 249 249 249 248 247 246 246 246 246 245 244 245 245 245 245 244 244 242 244 244 244 243 242 243 243 243 245 245 245 245 245 246 246 246 246 246 246
274 273 270 266 268 267 266 264 261 260 259 259 257 257 258 258 258 257 258 258 257 256 256 255 254 254 254 254 253 252 251 251 251 250 250 252 253 253 250 250 249 250 250 249 247 247 247 250 249 249 249 248 248 247 245 246 246 245 244 244 244 244 244 245 243 242 242 242 242 241 241 241 241 241 242 242 243 244 244 245 245 245 245 245 245 246 246
269 268 268 266 263 261 260 259 260 259 259 258 255 254 255 256 256 257 257 256 256 255 255 255 255 255 255 253 252 251 250 250 249 250 248 248 249 251 250 250 250 250 249 248 247 247 247 248 249 249 248 248 247 243 243 243 243 243 244 244 244 245 245 243 242 241 240 240 243 244 244 243 241 240 242 243 242 243 243 243 243 244 244 245 245 245 245
267 265 263 261 259 259 259 259 260 260 260 259 256 254 255 255 255 254 254 254 254 254 254 254 254 253 253 253 253 253 253 253 252 250 248 248 250 250 250 249 249 249 249 248 248 248 249 249 249 248 248 247 245 242 243 242 243 243 241 242 244 244 242 241 240 239 240 242 241 239 240 240 240 240 241 241 241 242 242 243 243 243 243 244 244 244 244
263 261 259 259 259 259 260 261 261 259 257 255 254 253 254 254 253 253 253 253 253 253 252 252 252 252 251 252 252 253 252 250 252 253 250 250 250 250 249 250 249 249 248 246 246 245 248 249 248 248 248 247 244 243 242 244 243 244 243 243 241 241 241 240 240 239 238 239 240 240 240 239 239 238 240 241 241 241 242 242 242 242 243 243 243 243 243
259 259 259 259 260 260 261 261 259 256 254 255 254 253 254 254 253 252 253 253 252 252 251 251 251 251 251 251 250 249 248 249 250 250 250 249 249 249 248 248 248 248 247 245 244 245 247 248 248 248 246 243 242 242 241 242 244 245 244 243 245 242 242 244 246 246 243 242 240 240 240 240 239 241 241 240 241 241 242 242 241 243 244 243 242 242 242
259 259 259 259 259 258 257 258 257 255 255 254 254 254 255 255 253 253 253 252 252 251 250 250 250 250 250 250 249 249 249 250 250 250 249 248 248 248 248 248 248 247 247 246 245 244 244 245 244 246 244 244 243 242 243 243 243 243 245 245 244 243 243 243 242 241 240 240 240 239 240 239 238 238 238 238 240 240 241 241 241 241 241 241 241 241 241
258 258 257 256 255 255 255 255 255 255 254 254 254 255 254 253 253 252 252 253 252 251 250 250 248 248 249 249 250 250 250 250 250 249 249 248 248 247 247 247 246 246 245 245 244 242 245 243 246 246 246 245 243 242 244 245 244 243 243 244 244 244 243 242 242 241 240 240 240 240 240 239 238 239 238 238 239 239 240 240 240 240 241 241 241 241 240
Wind_Speed
20 21 18 9 6 7 12 17 20 11 13 15 22 25 24 14 13 24 29 23 21 26 20 12 17 14 16 16 16 17 16 12 8 8 10 10 9 7 7 8 7 8 7 5 3 1 1 2 3 5 7 7 7 8 8 9 9 11 11 12 14 15 15 14 13 13 15 14 13 19 21 19 20 19 21 22 19 18 18 20 17 18 18 18 19 18 17
16 18 15 9 14 14 15 23 28 17 13 22 24 24 23 22 24 28 28 29 32 29 22 15 11 13 14 13 10 6 8 12 13 12 11 11 9 9 10 9 9 8 6 3 1 1 2 3 4 6 8 8 8 9 11 10 10 11 11 13 13 14 14 15 15 16 16 16 18 17 15 19 19 19 18 17 21 22 19 17 17 17 18 18 18 18 18
15 19 9 7 11 11 18 28 31 16 17 19 21 21 24 22 22 29 31 30 30 28 24 13 8 9 9 6 11 15 14 13 14 14 12 11 10 10 9 9 8 5 3 2 0 0 3 4 5 6 6 8 9 9 9 11 11 12 12 13 13 13 15 15 15 16 15 15 15 18 19 18 18 19 22 22 18 19 19 18 18 18 17 19 17 16 17
13 11 2 3 2 5 17 29 32 16 17 20 21 19 24 18 26 28 23 18 24 28 19 3 8 7 11 14 14 12 12 14 14 14 13 11 10 10 10 8 5 4 3 1 1 2 3 3 4 5 8 8 9 10 10 10 11 11 12 12 13 14 14 15 15 15 14 16 17 18 17 19 18 16 17 17 19 19 19 21 18 17 18 17 17 16 15
15 5 7 4 3 4 14 31 25 23 24 25 21 19 21 25 25 15 17 23 26 21 1 4 4 11 12 12 14 14 13 14 15 15 13 11 10 10 9 7 6 5 3 2 2 2 2 3 5 6 6 8 8 9 10 11 11 11 12 12 14 14 13 14 15 15 16 17 19 18 17 17 17 19 19 19 19 19 18 17 18 18 18 18 17 15 15
8 5 3 5 2 6 25 2 4 11 16 21 23 22 25 27 17 19 21 24 22 11 8 12 9 10 13 15 14 18 19 14 13 10 10 10 10 9 7 7 6 4 3 2 3 2 2 2 3 4 5 7 8 8 9 10 11 12 12 14 12 14 15 14 15 15 15 17 19 19 18 18 18 18 18 18 18 18 18 18 16 16 17 18 17 16 15
7 4 4 1 8 24 2 1 1 10 13 15 21 25 26 23 17 19 21 26 26 22 18 13 10 11 10 9 11 8 10 16 15 14 11 11 11 11 9 7 5 4 4 3 2 2 2 3 3 5 6 6 8 9 9 11 10 11 12 13 13 14 15 15 15 15 16 17 17 18 18 19 18 17 19 20 18 16 15 16 15 15 15 16 15 14 14
3 3 7 5 21 11 12 6 6 2 2 3 3 15 23 22 17 16 20 27 25 22 19 12 4 5 3 3 1 8 9 11 13 12 12 11 11 10 8 8 6 6 5 4 3 2 2 3 4 5 6 7 8 9 9 9 10 11 12 12 13 13 15 15 15 15 17 18 18 19 19 19 18 18 17 17 19 16 14 14 13 13 14 14 15 15 14
12 11 12 22 12 23 29 22 6 9 9 8 10 13 22 16 12 20 18 21 22 19 13 2 7 7 6 4 3 4 8 8 9 13 12 13 11 8 6 6 7 6 7 6 4 2 2 3 4 4 5 7 8 9 10 9 10 11 11 12 13 14 15 16 16 16 16 17 19 20 20 21 21 16 17 18 15 13 15 14 14 12 13 13 13 14 14
13 14 14 7 7 13 23 2 0 0 2 6 5 3 16 16 9 12 16 20 21 13 6 8 9 10 7 4 9 9 6 5 8 5 9 7 7 7 8 7 7 7 7 6 4 3 1 2 3 4 6 7 8 9 10 10 11 12 11 12 13 14 15 16 17 16 16 16 19 20 20 21 23 19 16 15 14 14 16 18 17 14 13 13 13 13 14
6 10 12 12 12 17 14 4 1 4 6 10 8 3 13 11 10 16 16 16 15 9 12 10 12 9 8 13 11 10 10 8 9 12 9 8 8 8 8 8 8 7 6 5 3 2 2 4 5 6 7 7 8 9 10 11 10 11 11 13 13 15 16 15 15 16 16 17 17 19 21 21 18 18 18 18 17 16 16 16 17 16 13 11 13 13 13
13 12 11 14 7 15 4 5 3 5 11 8 5 4 13 2 9 8 11 13 10 9 12 15 12 12 10 16 10 14 13 12 11 13 12 10 9 8 7 6 8 8 6 4 3 4 5 5 5 6 5 7 6 8 10 9 10 10 12 13 14 14 14 15 15 16 15 17 18 18 20 21 19 18 17 17 18 17 16 15 15 15 14 11 12 12 12
17 17 11 6 9 13 7 10 7 7 5 7 3 11 17 8 8 6 7 11 9 11 13 13 11 15 7 2 11 17 14 13 9 7 8 10 10 10 8 8 8 6 5 4 4 4 3 4 4 5 4 5 6 7 9 9 10 11 12 13 14 14 14 15 15 16 15 15 19 19 17 18 18 18 17 18 18 18 17 16 15 15 15 14 12 13 12
15 12 13 13 12 10 9 8 17 10 6 2 17 12 6 12 8 7 9 9 10 13 16 15 11 3 5 10 15 16 16 15 11 10 10 10 8 7 8 9 7 6 5 5 3 3 2 4 4 3 3 5 6 7 7 9 10 11 11 12 13 14 15 14 15 16 16 16 15 15 16 17 18 18 17 16 16 17 15 15 16 16 15 15 15 14 12
1 2 9 2 10 7 23 15 6 8 8 15 7 6 1 3 10 10 7 9 9 13 12 8 6 8 10 15 16 16 14 14 13 12 12 10 10 10 10 8 6 6 5 4 2 2 3 4 3 3 4 5 6 7 8 10 10 11 11 12 13 14 14 14 15 16 16 17 16 14 16 17 18 18 17 16 17 16 16 16 16 16 16 15 15 16 14
9 12 11 14 16 8 22 23 15 15 25 8 7 7 7 2 5 8 7 7 10 11 12 11 9 10 11 9 13 12 11 11 12 11 9 8 9 8 7 8 7 5 5 3 2 2 2 2 2 2 3 5 7 8 9 9 11 11 11 12 13 13 13 14 15 15 15 16 14 14 16 16 16 16 18 17 15 13 15 14 14 15 15 15 15 15 15
11 13 18 13 9 16 21 21 11 13 18 4 8 7 10 9 6 4 7 9 8 10 12 12 14 10 11 15 15 18 14 13 12 11 10 10 11 10 9 8 6 4 5 2 2 0 2 2 2 2 3 4 7 8 8 9 10 11 12 13 12 13 14 14 14 14 14 13 14 14 15 16 16 16 17 17 15 14 14 14 14 15 14 14 15 15 15
14 12 11 4 3 9 17 16 4 4 8 5 5 8 7 6 9 10 9 9 11 9 11 13 7 13 12 13 10 8 11 12 9 10 11 10 9 9 9 6 7 4 4 3 1 1 2 2 2 2 3 3 6 8 9 9 10 11 12 13 13 13 13 13 14 14 15 14 13 14 14 14 15 13 14 15 14 13 14 12 13 14 14 15 15 15 15
7 11 21 19 17 9 15 19 13 3 5 9 8 7 8 8 9 9 5 12 13 14 13 15 14 10 13 15 12 11 11 11 13 14 12 8 9 11 9 8 7 5 4 3 1 1 2 2 2 3 3 4 4 7 8 9 9 10 11 11 12 12 13 13 12 12 13 13 14 13 13 12 13 15 15 13 14 13 11 13 13 12 14 16 15 15 14
12 24 6 2 12 17 18 15 14 15 9 9 8 7 7 10 9 11 10 9 10 11 12 13 14 14 12 14 12 12 12 12 12 11 12 11 9 7 8 7 6 5 5 4 1 1 1 2 2 3 3 4 5 6 6 7 8 9 10 10 11 12 13 12 11 12 12 16 16 12 13 13 13 14 15 14 12 12 13 13 11 13 17 15 15 14 15
18 22 14 3 7 6 8 14 15 14 13 11 9 7 6 9 10 6 6 9 13 12 15 12 13 13 13 14 16 14 10 10 10 11 11 9 10 11 10 6 6 6 4 3 2 1 0 1 2 3 3 4 4 6 7 7 8 8 9 10 10 10 11 10 11 11 11 12 12 13 13 13 12 11 12 15 14 13 15 13 14 15 14 14 14 13 13
17 20 24 13 6 14 16 18 23 18 12 13 13 9 8 10 11 10 11 5 7 12 12 13 13 16 13 10 12 14 13 13 12 11 11 10 10 9 7 7 6 5 5 4 3 2 0 0 1 2 3 3 4 5 6 6 7 8 9 10 9 9 9 9 10 11 11 11 11 12 13 13 14 13 15 23 16 14 12 24 30 29 25 17 17 14 13
21 23 23 15 20 21 19 13 16 15 13 14 16 16 15 14 14 15 14 12 6 6 6 10 14 13 14 12 10 11 10 10 11 13 15 13 10 9 9 9 6 5 4 3 3 2 1 0 1 1 3 3 4 5 6 6 6 7 7 8 8 8 9 8 11 11 10 11 11 11 12 13 14 14 14 16 20 25 25 28 30 32 29 30 29 28 21
25 21 14 12 15 18 17 9 16 18 16 17 19 17 17 16 15 13 15 16 16 10 8 6 8 13 12 12 14 13 9 11 12 11 9 10 10 10 8 8 7 7 5 4 4 3 1 0 1 1 2 3 4 4 5 6 6 6 6 6 7 8 8 9 10 10 9 10 11 11 12 12 13 14 15 16 17 24 29 26 29 31 31 32 32 29 32
21 17 5 11 15 16 7 11 15 17 17 18 17 17 15 14 13 15 15 13 14 16 11 10 4 6 14 12 12 16 15 11 11 13 12 10 10 10 8 7 7 7 6 5 3 2 2 1 0 1 2 3 3 4 5 6 6 6 6 6 7 8 8 8 9 10 10 10 11 11 12 14 14 14 15 14 14 16 23 29 31 29 32 34 34 31 33
23 4 4 4 5 6 6 5 7 14 15 15 13 11 13 15 16 14 15 15 11 13 15 12 10 6 12 14 10 11 13 14 13 13 12 10 9 7 8 8 8 5 5 4 4 3 2 1 0 1 1 3 4 5 5 6 6 5 6 6 6 6 7 8 8 8 9 9 10 10 10 10 11 12 13 14 13 14 15 16 21 27 32 34 34 33 33
15 7 9 5 3 4 10 17 11 10 12 14 15 14 14 12 16 14 10 9 10 10 11 12 12 11 7 9 13 12 17 13 11 10 10 10 11 10 8 6 7 6 6 5 4 4 3 1 0 0 1 2 3 4 5 5 5 6 6 7 6 8 12 10 6 7 8 8 9 9 9 10 10 11 13 12 11 12 13 14 14 14 15 19 26 31 27
12 12 16 19 16 15 12 6 11 17 17 15 14 13 12 10 10 10 11 10 8 7 8 10 14 13 12 10 15 12 11 15 14 11 10 11 8 7 7 7 7 7 6 5 4 3 2 1 0 0 1 2 3 3 4 5 5 6 6 5 6 6 7 7 7 6 7 8 8 8 9 9 9 10 11 11 11 11 12 13 12 14 13 13 13 21 31
13 14 15 16 9 7 7 6 7 9 10 10 10 10 13 15 13 14 12 12 12 11 10 6 5 11 16 13 12 15 14 13 13 14 11 9 8 8 8 8 7 6 5 6 4 4 3 2 1 0 2 2 3 4 4 4 4 5 5 6 5 6 6 6 6 6 7 7 7 9 10 9 9 9 11 11 9 10 11 10 11 13 11 13 13 18 21
12 13 10 6 10 13 13 11 13 14 14 12 13 13 15 17 14 12 12 11 12 13 11 11 12 9 10 13 12 16 18 17 15 11 10 10 9 8 8 8 7 4 4 4 5 5 3 2 1 0 2 3 3 4 4 3 4 4 4 5 5 5 5 6 5 6 7 7 8 11 9 8 8 9 10 11 10 10 10 11 13 13 13 13 15 12 14
6 7 9 8 11 14 17 14 12 14 14 13 15 15 13 16 17 13 12 11 10 11 12 14 12 13 11 12 11 8 9 11 12 11 10 9 9 9 9 10 11 10 9 8 6 5 4 2 1 0 2 2 4 4 4 4 4 4 3 4 4 7 11 12 9 7 6 7 8 8 8 9 8 10 11 10 10 9 10 9 10 11 12 11 11 10 11
11 9 9 9 11 13 12 12 12 12 12 13 15 17 17 18 18 18 14 14 15 15 14 12 14 15 12 10 11 12 13 14 14 11 11 10 9 8 8 8 4 5 8 8 6 6 4 3 1 1 1 2 3 4 3 3 3 4 4 4 5 4 7 11 7 8 8 7 7 7 9 9 9 9 10 10 11 10 11 10 10 10 9 12 12 13 14
16 9 7 10 7 10 11 10 13 13 14 16 17 16 14 13 13 13 15 14 11 11 14 14 11 11 12 13 13 14 16 15 11 11 10 9 8 7 7 4 5 7 7 6 6 6 5 4 3 1 1 2 3 3 4 3 3 3 4 4 4 5 5 6 8 6 6 7 7 7 7 8 8 8 9 9 9 10 11 10 9 10 11 10 10 14 15
24 23 23 22 21 19 19 16 14 14 11 11 11 12 12 12 12 13 13 13 15 16 15 14 13 14 13 14 14 15 16 15 11 10 11 10 9 7 5 6 6 5 5 4 4 3 3 2 2 1 1 2 2 2 3 3 3 3 4 4 5 5 4 5 6 4 5 7 7 8 7 8 7 8 9 9 9 9 10 10 10 9 10 11 10 10 17
18 14 15 18 19 17 18 19 17 16 16 14 11 11 13 12 11 13 14 16 17 16 12 14 14 14 14 14 15 15 17 17 16 15 13 11 10 9 7 7 5 5 4 2 4 3 3 2 1 1 1 2 1 2 3 2 1 2 3 3 4 3 4 5 5 5 5 6 6 6 7 7 8 7 8 9 8 9 9 9 9 9 9 10 10 10 14
13 11 10 13 13 11 11 12 14 17 17 17 16 14 13 12 12 12 16 13 10 13 15 15 13 14 14 15 15 15 14 11 12 12 12 11 10 8 8 8 8 7 5 3 4 3 2 1 2 3 1 0 1 2 2 1 1 2 2 2 2 4 5 4 5 4 5 4 5 6 5 7 7 8 8 8 8 9 9 9 9 8 8 9 9 11 11
13 14 14 14 12 12 13 13 14 14 14 14 14 12 11 11 13 9 10 12 13 15 16 16 15 16 16 14 12 11 9 11 11 12 11 10 9 9 8 7 6 8 7 7 7 6 4 2 3 4 2 0 1 2 2 3 1 1 2 3 2 3 3 5 4 5 5 4 4 5 7 7 6 6 8 7 8 8 9 9 10 9 8 9 9 9 10
14 14 16 15 14 14 14 14 14 15 14 13 12 14 16 14 11 13 13 13 14 15 15 16 16 14 13 11 10 11 10 9 10 11 11 12 11 11 7 9 8 7 7 7 5 8 5 5 5 4 2 1 1 1 2 3 4 2 3 2 2 2 4 4 5 6 6 5 6 5 5 6 7 7 7 7 7 8 9 8 8 8 8 9 9 9 9
13 10 11 11 12 12 12 11 13 14 16 17 13 10 8 12 13 14 13 13 12 14 15 14 13 14 14 14 12 10 10 10 11 13 13 12 10 12 11 10 9 8 4 4 8 7 5 4 6 3 2 1 1 1 2 2 3 2 2 1 2 2 2 4 4 5 6 6 5 5 5 6 6 6 7 7 7 8 8 9 9 8 8 9 8 9 9
14 14 14 13 13 13 13 13 13 14 12 14 16 15 13 14 13 13 13 14 12 14 15 16 17 15 14 14 14 13 11 11 11 12 13 11 9 5 4 0 2 2 3 8 7 6 6 8 5 3 3 1 1 1 1 1 2 2 2 2 1 3 2 3 3 3 4 4 5 5 6 5 5 6 6 7 7 7 8 8 9 8 8 8 7 7 8
14 13 12 13 13 12 13 13 13 11 11 10 11 14 15 16 14 15 15 16 15 13 15 16 16 14 16 17 15 13 12 11 11 12 12 11 9 8 9 8 6 6 5 5 5 5 7 5 5 4 3 2 1 1 0 1 1 1 1 1 1 2 2 3 3 3 5 5 5 5 4 5 5 5 6 6 7 6 7 7 8 8 8 8 8 8 8
12 13 13 13 12 13 12 12 12 11 8 9 11 13 14 16 18 17 15 14 14 13 13 10 11 16 15 12 12 15 13 13 13 12 12 12 13 11 9 6 6 7 8 8 7 6 5 4 4 4 3 2 2 1 2 2 1 1 1 1 1 1 1 2 3 3 4 4 3 3 4 4 4 4 5 5 6 7 7 7 7 7 8 8 7 7 8
13 15 14 13 12 13 13 13 14 14 11 9 11 12 13 12 12 14 15 15 15 14 13 12 12 14 15 15 16 15 14 12 11 10 6 1 1 1 1 7 8 7 11 7 6 5 6 4 4 3 4 3 1 2 3 2 1 2 1 1 2 1 2 1 2 2 4 3 5 4 4 4 4 5 5 5 5 6 6 7 7 7 7 8 8 7 7
13 13 13 13 13 12 13 12 12 13 14 10 8 11 12 12 13 17 17 16 15 15 16 15 14 15 15 16 16 13 11 11 11 9 8 5 1 1 3 6 7 9 11 8 6 6 5 4 4 4 5 4 3 3 3 2 1 1 1 1 1 1 1 1 2 2 4 4 4 4 4 5 4 4 4 5 5 5 5 5 6 6 6 7 7 7 6
12 12 13 14 14 13 13 13 15 14 11 12 11 10 10 12 12 12 15 16 16 14 13 14 15 15 14 14 13 14 13 11 12 13 12 8 6 6 4 6 8 7 8 8 6 6 5 4 6 6 5 5 5 4 3 2 1 1 1 1 1 1 1 1 2 1 3 3 3 3 5 3 3 3 3 4 5 4 5 6 6 6 6 6 7 7 7
11 11 13 15 14 12 10 11 11 14 15 14 12 9 8 9 11 11 11 13 14 13 12 12 13 15 15 13 11 11 9 7 5 1 2 2 5 6 9 8 8 6 10 9 5 6 5 7 8 7 6 6 5 4 2 2 1 1 1 1 0 1 1 1 1 2 2 3 4 3 3 4 3 3 3 3 3 4 4 6 6 5 6 6 6 6 6
12 12 12 12 12 12 14 13 13 15 15 15 18 15 9 9 10 9 9 9 10 11 10 10 10 11 9 13 17 15 12 9 3 1 1 2 4 8 10 10 9 11 9 7 6 6 6 7 7 7 7 6 6 3 3 2 1 1 0 0 0 1 1 1 1 2 2 3 4 4 4 5 4 3 5 4 3 3 3 4 4 5 5 6 5 6 6
14 14 12 14 16 14 14 15 15 14 12 12 15 16 11 10 11 10 10 11 11 11 10 9 9 9 10 8 5 5 11 17 15 6 3 4 4 8 8 7 8 8 8 7 7 5 7 7 8 7 7 6 4 3 3 2 2 1 1 1 1 2 1 1 2 3 3 2 2 4 4 5 4 4 4 4 4 3 3 4 4 4 4 5 6 6 6
12 14 12 12 14 15 14 13 12 11 10 13 18 15 12 13 13 12 11 12 13 11 10 9 10 9 7 6 6 7 4 3 2 8 8 7 8 8 7 8 11 10 7 6 6 5 7 8 8 7 7 6 3 3 2 2 2 2 2 1 1 2 3 3 4 3 3 3 2 2 2 3 4 4 5 5 5 4 5 4 4 3 4 5 5 6 5
12 14 12 11 11 11 11 11 10 10 12 12 12 11 12 13 13 10 9 10 10 10 9 8 8 7 7 6 6 5 4 4 7 10 10 9 8 7 7 7 7 7 6 6 5 5 5 7 7 7 5 4 4 3 2 2 2 2 2 3 2 2 3 4 4 4 2 3 2 2 3 3 4 5 5 4 5 5 5 4 4 5 7 6 5 5 5
10 10 9 8 8 7 7 7 10 11 11 11 11 11 11 9 11 11 10 11 12 12 11 9 6 5 5 5 5 4 5 7 8 9 9 8 7 7 6 6 6 6 6 6 5 6 5 4 4 4 4 4 3 2 2 2 2 1 2 2 3 2 2 4 4 3 3 4 3 3 4 4 3 4 4 4 4 5 6 6 5 4 4 4 4 4 5
10 11 10 7 8 10 11 11 10 9 9 10 10 10 9 11 12 12 9 5 9 12 13 14 11 4 5 6 5 4 5 7 8 7 7 8 8 6 7 6 6 5 5 5 5 4 3 4 4 4 4 3 3 2 3 4 2 2 3 4 3 3 4 5 5 4 4 4 4 4 5 4 3 4 4 5 4 5 5 5 6 5 5 4 4 5 5
Wind_Direction
245 248 254 252 238 237 260 263 262 222 189 197 211 226 234 219 212 243 258 257 250 256 256 217 215 200 202 199 198 197 187 172 162 162 170 178 185 186 183 196 199 211 223 223 241 253 273 303 322 324 324 327 325 317 311 310 317 320 319 315 313 310 306 300 292 287 292 299 307 314 311 316 316 313 316 312 306 308 305 299 293 291 290 291 289 286 283
246 254 252 251 255 264 268 264 258 242 199 213 221 233 236 226 236 244 257 263 265 264 263 248 224 202 206 206 193 159 151 173 175 174 176 181 186 186 194 200 205 214 214 221 229 248 310 341 337 335 329 325 325 319 316 320 320 319 322 314 309 307 304 302 303 303 304 308 315 315 313 313 310 309 309 313 309 301 297 297 294 291 290 287 285 283 282
259 260 252 235 240 246 261 262 259 244 240 237 231 236 244 241 246 251 251 258 268 269 263 257 245 194 193 162 165 183 183 173 178 178 180 185 186 191 196 199 209 209 212 209 203 329 356 354 343 335 325 320 320 316 317 320 320 321 322 313 310 308 304 302 302 303 306 311 313 315 316 315 314 311 310 310 307 307 297 291 294 289 286 286 282 282 281
266 268 220 231 264 267 261 268 266 247 233 243 237 227 234 225 235 241 251 260 259 261 273 246 222 164 171 184 186 180 185 184 176 179 183 184 187 189 195 201 198 203 200 191 83 29 5 350 344 336 328 323 319 318 320 319 319 322 319 311 309 307 304 303 304 306 311 315 317 316 316 313 311 309 306 304 304 301 302 295 289 289 283 281 281 281 281
251 280 104 105 127 283 281 257 256 243 225 228 236 237 237 231 229 240 246 241 244 255 328 234 203 185 193 187 186 185 183 182 178 181 182 183 183 188 187 188 199 195 186 148 104 55 22 355 339 332 327 321 320 320 322 320 322 320 315 312 310 308 307 308 308 314 317 319 317 314 312 312 311 310 305 303 298 293 286 289 289 287 285 282 280 278 274
250 83 108 117 140 262 249 3 172 166 206 214 227 236 236 236 211 223 229 245 255 267 248 241 222 191 200 195 197 179 172 176 185 184 177 179 179 180 183 189 188 182 153 125 96 85 55 353 335 323 324 317 315 321 320 323 322 315 314 312 311 309 311 312 315 316 318 320 316 311 311 310 306 302 303 301 298 292 289 287 282 278 280 276 275 275 273
242 112 87 202 224 247 298 229 284 180 200 201 211 230 239 242 229 232 244 254 256 252 251 243 226 202 210 202 176 176 181 170 172 171 172 172 174 180 183 187 182 162 140 104 89 63 36 353 337 331 325 332 326 326 328 321 315 311 311 310 311 313 314 316 318 319 319 316 313 311 309 308 304 300 301 299 293 288 285 283 284 282 283 283 276 271 268
44 130 193 214 241 268 309 257 161 197 152 198 215 263 256 248 235 226 230 244 250 252 252 250 198 179 141 93 111 170 176 169 155 158 171 173 172 178 186 172 161 150 126 113 104 60 20 358 339 339 337 335 332 325 322 312 311 310 311 312 312 317 318 319 320 320 321 317 314 313 313 312 306 296 295 291 291 288 280 279 274 275 274 271 270 270 268
229 216 217 234 310 317 288 278 216 151 200 170 173 252 274 260 193 224 229 243 250 250 255 104 94 102 100 119 201 217 170 164 162 163 167 168 175 168 157 143 137 120 110 105 86 74 27 1 339 353 343 339 330 324 319 314 312 313 317 316 319 321 319 320 321 321 318 315 312 314 314 313 312 300 299 297 292 288 287 285 281 274 273 271 270 268 264
209 238 248 254 261 254 269 249 246 231 195 164 171 190 273 271 191 210 213 233 242 243 105 137 132 132 107 190 223 199 194 161 147 130 140 143 140 135 129 120 120 108 100 91 86 82 38 360 9 1 351 342 333 323 318 319 322 321 321 320 322 321 319 319 316 316 316 315 313 312 313 311 312 306 298 296 299 306 310 307 295 282 279 276 268 263 261
183 228 232 236 239 246 244 108 203 139 124 119 109 78 274 266 180 206 201 220 234 199 155 153 149 129 195 226 211 174 174 164 154 141 140 142 137 138 143 143 123 108 99 99 115 77 49 15 9 8 356 345 333 323 321 322 321 319 322 324 326 324 320 318 316 315 315 314 313 313 314 313 311 311 316 318 315 313 307 303 298 289 276 267 267 264 256
224 219 228 238 212 255 242 147 139 165 129 115 86 346 270 245 188 185 191 211 210 166 165 154 169 171 210 228 211 158 161 157 152 148 145 142 140 129 120 107 108 110 115 102 78 49 34 15 13 5 356 344 330 317 316 316 319 321 325 325 319 318 315 315 313 312 312 313 312 314 313 314 317 317 316 316 316 315 308 303 299 297 285 268 263 263 257
227 226 247 293 277 256 151 155 149 162 133 91 84 230 253 154 181 192 170 207 181 157 159 168 178 213 214 143 124 144 144 138 136 139 140 142 143 143 134 120 112 105 98 89 77 48 34 21 16 1 359 341 322 314 314 317 321 322 321 319 319 319 316 312 312 311 312 312 312 313 313 313 316 318 319 319 318 317 313 304 299 296 291 281 272 273 264
229 220 235 239 270 258 136 169 158 162 114 156 234 246 123 155 182 197 182 185 170 162 174 187 203 134 110 129 131 141 155 156 141 133 128 121 114 118 112 115 110 109 110 90 76 52 42 24 27 5 358 335 316 318 318 317 320 321 321 320 319 318 315 312 310 311 311 313 311 312 315 318 321 320 320 320 318 318 313 305 305 307 319 319 310 296 289
44 124 228 304 267 256 144 146 131 198 175 232 212 104 293 143 177 165 190 170 180 170 186 183 128 129 128 138 148 149 148 147 148 144 149 147 147 134 121 110 111 118 112 108 89 47 25 29 21 0 353 327 317 317 317 316 322 324 323 322 320 317 314 312 314 313 313 316 319 322 322 323 322 322 323 324 323 320 319 316 318 319 318 321 320 315 305
182 188 199 210 223 131 154 146 182 190 215 205 138 145 165 192 155 175 157 189 177 181 165 148 143 141 133 129 141 143 143 145 143 145 140 128 115 109 110 118 119 109 103 99 98 63 21 31 5 8 340 326 318 321 316 323 326 325 324 324 320 316 314 314 314 315 315 318 321 326 324 324 325 326 327 326 325 324 323 321 324 324 322 323 325 322 321
170 194 213 218 106 166 180 187 206 204 205 120 186 148 165 156 207 167 164 175 178 173 158 148 145 147 160 157 159 158 165 156 157 152 154 143 132 132 129 125 117 109 122 140 127 94 20 33 359 6 338 328 317 318 319 331 327 329 328 325 323 318 317 316 315 313 315 319 325 332 331 328 331 333 330 330 328 330 328 326 327 326 320 328 328 323 323
235 268 265 92 205 187 200 220 205 158 182 202 162 161 148 197 164 173 170 178 165 163 151 141 167 158 161 151 165 152 151 150 144 128 111 121 119 119 118 116 119 123 112 113 79 33 7 29 0 360 336 327 323 316 327 328 330 330 326 324 322 320 317 316 315 317 320 325 329 335 335 333 331 333 332 330 327 326 331 328 328 321 324 334 330 325 326
163 249 239 218 226 195 205 213 219 245 204 183 177 177 172 175 170 176 178 159 167 160 161 159 161 161 161 160 162 154 148 153 151 151 138 124 133 139 137 137 129 122 121 106 106 27 4 1 1 348 327 331 324 324 327 329 330 328 323 320 316 315 317 315 317 321 328 333 335 338 342 339 336 336 337 333 328 327 327 328 324 323 333 337 330 325 328
191 244 227 233 227 214 206 206 208 221 206 195 198 186 178 169 175 173 169 153 153 154 163 166 154 161 166 157 160 160 163 157 157 147 145 137 131 128 129 131 131 127 121 138 135 111 11 340 350 335 332 332 329 325 325 333 328 325 321 321 320 316 316 319 322 329 332 335 337 336 340 341 341 342 334 331 329 330 333 330 324 333 343 339 333 325 335
233 256 259 182 41 286 242 223 222 213 194 184 187 190 169 155 155 154 150 166 161 168 172 162 154 153 175 171 164 159 154 150 150 152 141 139 136 137 137 140 138 138 141 146 151 152 227 325 338 322 331 325 324 331 334 332 328 326 322 321 316 312 316 323 327 334 336 336 338 337 334 337 336 334 329 334 331 331 340 334 341 343 341 341 334 334 336
238 227 235 175 208 249 235 210 216 206 186 178 178 168 159 166 162 159 157 177 178 176 166 160 156 165 173 172 158 158 159 158 149 137 138 138 137 136 134 127 125 128 143 148 161 163 213 306 332 330 331 326 328 332 330 331 331 326 324 321 318 319 323 327 329 336 339 338 339 338 337 337 336 330 332 347 343 343 339 349 355 358 357 352 346 346 348
236 235 236 194 205 229 241 211 195 187 181 174 175 182 178 181 171 163 157 155 171 183 184 167 163 166 165 168 157 143 148 150 150 146 143 143 142 142 138 129 133 143 152 150 150 177 191 171 7 339 325 323 327 333 330 333 330 324 321 319 317 318 328 332 335 341 338 339 340 340 339 340 339 336 333 332 344 355 357 355 2 2 360 359 356 1 2
238 244 238 192 199 217 232 173 174 182 183 180 187 186 180 173 169 167 166 168 168 182 172 190 183 164 159 155 152 144 131 135 136 138 137 135 137 139 143 142 150 152 159 166 170 176 158 101 23 323 317 317 328 328 332 330 328 322 318 317 319 322 324 324 334 341 340 337 338 340 343 344 345 342 340 339 332 345 355 359 1 5 4 2 1 3 5
240 241 197 188 207 221 201 163 177 182 183 179 182 182 178 174 173 169 170 176 173 165 168 177 172 152 149 155 151 149 148 146 144 139 134 131 136 140 145 144 159 168 167 165 165 165 137 107 19 313 308 311 324 332 332 329 327 323 318 317 313 317 318 327 335 339 341 341 340 341 343 345 346 348 349 344 337 333 336 346 357 8 7 2 2 3 5
236 220 130 172 185 181 138 106 177 190 181 176 175 178 177 173 173 170 175 172 176 171 170 167 152 153 149 146 140 129 127 139 142 135 134 139 138 135 156 171 170 157 154 158 167 143 132 114 270 289 301 304 334 329 329 323 324 315 311 308 307 306 319 329 338 342 343 340 339 338 340 346 344 347 347 341 340 334 331 334 347 352 358 358 358 0 6
229 155 118 77 150 185 178 173 195 165 170 181 179 173 174 174 168 169 167 163 163 168 170 164 151 137 122 128 130 139 138 135 129 135 139 146 159 170 166 151 154 156 157 158 147 139 121 123 187 266 283 302 323 323 323 322 322 321 314 318 317 319 329 338 343 344 339 338 335 332 338 344 344 346 340 324 330 334 338 337 334 344 341 342 348 354 8
211 185 183 207 207 195 199 192 148 172 177 173 170 166 164 142 137 134 132 121 105 95 97 125 133 131 128 138 132 125 126 140 148 150 150 163 158 143 148 150 150 157 157 152 141 129 126 151 193 238 282 305 329 320 320 327 326 319 316 321 328 328 330 333 347 343 342 334 331 329 339 339 342 339 342 332 336 334 330 329 332 339 334 332 327 340 3
203 197 204 219 211 166 157 132 128 148 164 169 160 141 139 145 158 155 159 156 143 128 127 131 133 144 143 150 145 144 150 149 151 163 160 150 145 148 148 146 149 155 155 146 137 136 138 157 174 35 294 306 319 321 331 330 322 316 322 328 333 332 332 330 342 341 339 333 326 335 343 337 337 342 349 343 335 338 342 338 334 339 330 319 325 346 3
196 191 187 161 129 141 146 164 168 164 163 160 144 155 158 152 156 170 161 148 151 158 158 143 141 145 150 146 158 153 160 167 162 148 143 148 148 148 145 140 130 135 138 146 152 152 152 178 168 227 277 303 325 327 330 324 306 304 304 315 325 323 320 332 349 342 346 338 338 341 338 338 341 342 349 348 344 337 338 334 345 339 339 335 345 330 349
148 156 154 147 149 162 171 172 165 165 159 156 155 154 166 163 164 164 164 155 158 147 155 159 155 144 159 158 149 135 124 128 134 140 142 147 149 153 153 163 158 173 180 173 161 161 171 175 185 227 264 304 320 317 321 319 308 312 313 327 338 342 352 2 6 356 345 338 338 343 339 345 344 346 347 344 339 337 345 331 332 343 344 343 334 337 347
143 152 150 163 166 167 168 164 159 159 160 158 157 168 171 172 173 173 165 166 175 161 151 150 157 164 156 139 133 130 127 111 105 124 133 139 154 162 174 189 203 157 146 146 155 167 166 154 130 238 268 300 304 298 306 312 315 332 343 339 339 336 336 3 5 356 349 338 336 341 342 344 345 347 348 354 354 349 348 337 337 345 337 351 340 351 344
148 147 173 176 164 166 168 169 158 166 165 173 179 174 174 178 173 167 169 161 136 152 162 163 155 144 140 137 132 131 118 110 129 135 148 158 164 169 172 172 159 143 141 153 161 166 160 159 190 238 290 280 289 288 306 304 315 330 325 338 326 324 340 356 2 355 341 342 346 344 339 340 339 343 349 345 348 348 354 346 342 345 345 340 336 346 346
174 185 188 179 169 173 176 183 176 168 173 176 170 168 170 174 174 167 160 163 160 159 166 160 150 143 140 141 138 135 134 127 140 165 172 167 166 167 169 157 153 141 141 148 149 155 178 191 198 228 259 277 288 301 302 311 329 336 332 337 337 339 344 341 353 347 348 347 342 337 335 338 345 347 347 348 348 349 349 346 349 348 348 344 338 321 345
182 184 172 176 185 182 173 166 168 169 167 170 172 173 176 173 165 167 161 158 169 172 150 137 140 141 142 142 144 151 159 165 166 162 167 167 168 165 158 139 120 104 111 146 171 203 199 194 183 227 254 277 278 291 292 305 348 359 344 350 340 338 332 335 354 352 348 336 329 339 343 347 345 344 345 348 346 348 351 351 349 347 346 340 336 337 349
176 171 165 173 174 162 157 163 165 166 167 171 174 172 172 172 158 149 163 169 137 131 140 141 139 144 148 150 155 163 168 159 154 155 158 163 161 153 148 145 141 140 150 192 218 204 201 177 220 189 159 240 267 296 288 304 46 41 351 12 349 343 338 348 344 338 333 335 345 346 339 340 339 342 347 345 347 351 353 354 351 346 344 340 334 342 334
174 164 165 168 167 158 155 158 162 163 169 168 165 162 161 163 165 152 132 128 141 145 144 144 147 157 163 165 156 151 145 149 153 157 156 149 149 151 148 141 149 158 161 189 216 180 186 168 180 129 134 176 259 283 284 3 74 41 29 20 4 355 355 356 351 346 343 338 345 345 343 342 345 347 350 352 352 350 350 354 349 341 351 344 341 336 339
170 165 162 162 161 163 165 166 162 163 163 163 168 170 167 157 144 142 147 143 145 148 151 155 156 149 139 131 138 148 145 144 145 144 146 153 157 145 149 156 169 163 182 209 177 154 168 178 167 127 151 211 244 263 296 1 64 63 39 29 14 0 3 5 353 345 343 340 342 354 356 351 349 346 347 351 351 351 350 348 347 341 334 338 342 343 348
165 154 149 151 154 157 155 155 160 165 164 166 162 144 139 141 136 131 137 145 144 143 143 141 136 138 143 144 147 146 150 152 148 148 151 155 160 158 175 181 182 175 189 157 136 153 159 160 139 140 160 204 236 280 286 347 60 74 47 45 20 14 9 5 356 342 338 339 340 358 359 356 351 350 347 346 347 348 347 350 349 340 343 337 340 346 343
164 162 156 150 158 160 154 157 165 170 175 160 148 149 146 137 141 137 136 138 150 153 147 143 144 146 153 154 153 159 162 155 155 152 152 150 147 130 102 74 197 198 165 135 134 144 155 158 148 152 153 182 212 239 276 32 47 58 54 44 25 33 9 360 352 344 335 342 353 358 357 359 353 349 342 341 343 348 348 347 348 349 342 343 340 335 342
163 154 153 155 155 153 155 155 162 162 151 150 147 142 147 147 142 141 152 152 154 154 153 154 150 151 160 162 160 150 147 151 154 153 146 136 142 161 163 182 175 161 167 152 147 148 154 149 147 146 163 177 219 199 163 68 76 52 50 24 36 31 25 1 359 349 342 346 349 356 350 347 349 349 340 344 341 342 346 347 347 346 349 347 344 343 345
159 150 150 149 149 153 154 147 132 125 128 133 137 143 147 150 153 154 147 141 143 149 148 154 152 151 147 138 129 114 124 130 128 145 163 164 165 164 167 196 156 159 160 150 151 150 149 151 152 147 167 177 197 147 120 110 86 80 55 40 20 24 25 11 355 340 333 329 331 336 343 349 354 347 347 345 342 343 343 345 345 347 346 344 342 337 339
152 152 154 150 149 144 141 144 148 139 126 128 139 142 139 137 127 128 136 143 143 144 143 135 127 129 134 135 137 137 131 143 149 155 146 51 20 10 157 151 149 155 151 144 145 148 151 149 146 143 167 171 172 141 105 106 86 79 57 50 22 17 9 3 347 341 333 333 339 345 349 353 1 353 348 346 338 336 337 341 345 345 342 341 341 336 336
149 149 146 142 141 141 136 128 123 126 128 128 130 131 133 132 139 142 144 145 146 149 146 143 143 145 147 147 145 144 147 156 155 158 144 128 111 139 124 139 147 147 145 146 147 152 155 147 152 156 159 160 155 123 123 96 95 85 77 53 41 14 346 340 350 341 337 340 334 335 343 345 352 345 343 341 335 338 336 336 333 338 337 339 336 333 332
148 147 145 141 136 133 137 142 146 142 129 120 114 117 125 132 136 142 143 145 148 147 146 146 150 151 155 159 158 158 158 157 156 154 147 152 165 207 161 145 142 146 147 143 146 147 149 145 153 157 165 159 142 131 110 103 108 99 81 69 39 9 344 332 338 333 333 327 327 329 333 333 338 334 333 327 328 331 332 331 329 334 335 335 338 341 344
131 127 125 127 134 136 129 119 109 114 120 117 106 93 105 122 129 131 139 142 143 148 151 150 150 154 152 141 122 120 115 119 131 103 18 119 155 158 147 148 148 146 144 141 143 144 145 152 156 160 162 151 142 124 120 122 115 108 87 78 20 316 322 314 326 315 309 311 316 310 320 317 323 323 319 311 316 321 322 328 323 327 330 328 334 335 336
121 119 125 120 108 109 114 116 121 120 119 121 114 110 117 120 122 123 122 120 124 126 131 136 140 145 145 144 145 141 137 127 128 58 65 66 94 120 130 132 133 142 142 146 151 149 154 153 162 162 159 152 137 131 137 133 143 136 138 5 293 299 280 293 304 289 290 296 304 318 323 322 321 318 318 322 320 319 321 320 325 326 325 321 320 326 331
127 124 123 125 124 124 122 127 132 139 142 141 134 108 124 118 114 109 113 114 116 117 118 122 123 123 127 131 124 127 150 150 151 202 171 144 136 132 139 148 144 137 132 135 133 143 151 155 164 165 160 147 134 139 144 151 150 158 172 217 245 261 267 280 278 285 289 292 305 310 313 318 320 321 316 310 308 310 303 315 317 320 321 326 326 329 326
110 115 114 117 125 132 135 136 132 125 116 125 115 97 122 119 115 114 117 119 118 117 115 113 114 114 110 111 114 122 100 0 75 158 156 147 146 142 134 131 137 139 135 137 145 156 166 173 169 166 158 146 138 145 146 150 158 176 170 189 211 243 252 257 257 254 259 272 277 284 289 296 298 308 307 310 307 304 307 311 306 304 312 322 323 321 315
114 116 120 131 136 140 143 139 128 126 132 135 132 133 136 131 125 132 133 131 125 117 112 113 112 114 111 107 102 83 58 86 98 104 121 129 127 125 129 130 135 131 133 139 145 153 164 169 170 167 154 147 146 150 159 165 178 193 183 203 215 224 230 243 259 270 257 273 277 283 281 281 284 290 295 303 299 302 305 301 298 307 317 319 308 313 323
123 118 118 112 100 83 63 78 115 127 132 129 132 135 138 129 126 132 138 137 135 126 123 113 92 87 94 101 92 82 96 104 106 112 118 121 120 118 118 128 133 137 138 142 154 164 169 169 168 165 153 151 156 166 175 190 184 195 207 210 217 216 230 245 243 253 259 256 258 265 268 274 276 284 280 280 292 302 301 308 311 314 315 312 310 312 312
84 83 80 78 82 86 88 92 95 102 111 125 133 136 130 129 130 128 126 128 135 137 139 134 127 120 123 116 105 98 111 112 113 112 109 114 120 123 120 117 124 132 135 150 159 168 168 170 171 160 159 162 166 182 198 206 216 218 222 225 226 223 228 233 234 241 250 257 262 267 271 268 267 271 278 276 277 282 293 299 300 304 305 302 307 311 305